Grand Rapids, MN

5:05 PM CDT on May 26, 2017 (GMT -0500)
Grand Rapids-Itasca County-Newstrom Field

Weather History for KGPZ - March, 2014

Change the Weather History Date:

Tuesday, March 11, 2014

  Actual Average Record
Temperature  
Mean Temperature 26 °F -  
Max Temperature 35 °F 37 °F 57 °F (2012)
Min Temperature 17 °F 10 °F -34 °F (1948)
Degree Days  
Heating Degree Days 39    
Moisture  
Dew Point 17 °F    
Average Humidity 61    
Maximum Humidity 80    
Minimum Humidity 44    
Precipitation  
Precipitation 0.00 in - - ()
Sea Level Pressure  
Sea Level Pressure 29.87 in    
Wind  
Wind Speed 13 mph (NNW)    
Max Wind Speed 23 mph    
Max Gust Speed 30 mph    
Visibility 10 miles    
Events      
Averages and records for this station are not official NWS values.
T = Trace of Precipitation, MM = Missing Value Source: NWS Daily Summary

Daily Weather History Graph

Daily Weather History Graph

Search for Another Location

Airport or City:

Trip Planner

Search our weather history database for the weather conditions in past years. The results will help you decide how hot, cold, wet, or windy it might be!

Date:

Astronomy

Mar. 11, 2014 Rise Set
Actual Time 7:34 AM CDT 7:13 PM CDT
Civil Twilight 7:04 AM CDT 7:44 PM CDT
Nautical Twilight 6:28 AM CDT 8:19 PM CDT
Astronomical Twilight 5:53 AM CDT 8:56 PM CDT
Moon 2:37 PM CDT (3/11) 4:43 AM CDT (3/11)
Length of Visible Light 12h 40m
Length of Day
11h 39m
Waxing Gibbous, 78% of the Moon is Illuminated
Mar 11
Waxing Gibbous
Mar 16
Full
Mar 23
Last Quarter
Mar 30
New
Apr 7
First Quarter

Hourly Weather History & Observations

Time (CDT) Temp. Windchill Dew Point Humidity Pressure Visibility Wind Dir Wind Speed Gust Speed Precip Events Conditions
12:15 AM 35.6 °F 28.6 °F 28.4 °F 75% 29.68 in 10.0 mi NW 9.2 mph - N/A   Clear
12:35 AM 35.6 °F 28.0 °F 28.4 °F 75% 29.68 in 10.0 mi WNW 10.4 mph - N/A   Clear
12:55 AM 35.6 °F 28.6 °F 28.4 °F 75% 29.70 in 10.0 mi WNW 9.2 mph - N/A   Clear
1:15 AM 35.6 °F 28.6 °F 26.6 °F 70% 29.70 in 10.0 mi NW 9.2 mph - N/A   Clear
1:35 AM 35.6 °F 28.6 °F 28.4 °F 75% 29.70 in 10.0 mi NW 9.2 mph - N/A   Clear
1:55 AM 35.6 °F 28.0 °F 26.6 °F 70% 29.70 in 10.0 mi NW 10.4 mph - N/A   Clear
2:15 AM 35.6 °F 28.0 °F 26.6 °F 70% 29.71 in 10.0 mi NW 10.4 mph - N/A   Clear
2:35 AM 33.8 °F 26.4 °F 26.6 °F 75% 29.71 in 10.0 mi NW 9.2 mph - N/A   Clear
2:55 AM 33.8 °F 25.8 °F 26.6 °F 75% 29.72 in 10.0 mi NW 10.4 mph - N/A   Clear
3:15 AM 33.8 °F 27.0 °F 26.6 °F 75% 29.72 in 10.0 mi NW 8.1 mph - N/A   Clear
3:35 AM 33.8 °F 25.8 °F 26.6 °F 75% 29.71 in 10.0 mi NW 10.4 mph - N/A   Clear
3:55 AM 33.8 °F 26.4 °F 26.6 °F 75% 29.71 in 10.0 mi NW 9.2 mph - N/A   Clear
4:15 AM 32.0 °F 23.6 °F 26.6 °F 80% 29.71 in 10.0 mi NW 10.4 mph - N/A   Clear
4:35 AM 32.0 °F 22.5 °F 24.8 °F 75% 29.72 in 10.0 mi NNW 12.7 mph - N/A   Clear
4:55 AM 32.0 °F 23.6 °F 24.8 °F 75% 29.72 in 10.0 mi NNW 10.4 mph - N/A   Clear
5:15 AM 32.0 °F 23.0 °F 24.8 °F 75% 29.73 in 10.0 mi NNW 11.5 mph - N/A   Clear
5:35 AM 30.2 °F 19.3 °F 23.0 °F 75% 29.75 in 10.0 mi NNW 15.0 mph - N/A   Clear
5:55 AM 30.2 °F 19.3 °F 21.2 °F 69% 29.76 in 10.0 mi NNW 15.0 mph - N/A   Clear
6:15 AM 30.2 °F 19.3 °F 21.2 °F 69% 29.76 in 10.0 mi NNW 15.0 mph - N/A   Clear
6:35 AM 30.2 °F 20.2 °F 21.2 °F 69% 29.76 in 10.0 mi NNW 12.7 mph - N/A   Clear
6:55 AM 30.2 °F 20.2 °F 21.2 °F 69% 29.77 in 10.0 mi NW 12.7 mph - N/A   Clear
7:15 AM 30.2 °F 19.3 °F 19.4 °F 64% 29.78 in 10.0 mi NNW 15.0 mph - N/A   Clear
7:35 AM 30.2 °F 20.2 °F 17.6 °F 60% 29.79 in 10.0 mi NW 12.7 mph - N/A   Clear
7:55 AM 28.4 °F 18.5 °F 17.6 °F 64% 29.79 in 10.0 mi NW 11.5 mph - N/A   Clear
8:15 AM 28.4 °F 16.6 °F 15.8 °F 59% 29.80 in 10.0 mi NNW 16.1 mph 23.0 mph N/A   Clear
8:35 AM 28.4 °F 15.8 °F 15.8 °F 59% 29.81 in 10.0 mi NNW 18.4 mph 24.2 mph N/A   Clear
8:55 AM 28.4 °F 16.2 °F 15.8 °F 59% 29.83 in 10.0 mi NNW 17.3 mph 21.9 mph N/A   Clear
9:15 AM 28.4 °F 16.6 °F 17.6 °F 64% 29.84 in 10.0 mi NNW 16.1 mph - N/A   Clear
9:35 AM 28.4 °F 17.0 °F 17.6 °F 64% 29.85 in 10.0 mi North 15.0 mph - N/A   Clear
9:55 AM 26.6 °F 14.3 °F 17.6 °F 69% 29.86 in 10.0 mi NNW 16.1 mph 19.6 mph N/A   Clear
10:15 AM 26.6 °F 16.2 °F 17.6 °F 69% 29.86 in 10.0 mi North 11.5 mph - N/A   Clear
10:35 AM 28.4 °F 18.0 °F 17.6 °F 64% 29.88 in 10.0 mi NNW 12.7 mph - N/A   Clear
10:55 AM 28.4 °F 19.1 °F 17.6 °F 64% 29.88 in 10.0 mi NNW 10.4 mph - N/A   Clear
11:15 AM 28.4 °F 18.0 °F 17.6 °F 64% 29.89 in 10.0 mi NNW 12.7 mph - N/A   Clear
11:35 AM 28.4 °F 18.0 °F 17.6 °F 64% 29.89 in 10.0 mi NW 12.7 mph - N/A   Clear
11:55 AM 28.4 °F 17.0 °F 15.8 °F 59% 29.89 in 10.0 mi NNW 15.0 mph - N/A   Clear
12:15 PM 30.2 °F 19.8 °F 15.8 °F 55% 29.89 in 10.0 mi NNW 13.8 mph - N/A   Clear
12:35 PM 30.2 °F 19.3 °F 17.6 °F 60% 29.90 in 10.0 mi NW 15.0 mph - N/A   Clear
12:55 PM 30.2 °F 17.8 °F 17.6 °F 60% 29.90 in 10.0 mi NW 19.6 mph - N/A   Clear
1:15 PM 30.2 °F 18.9 °F 15.8 °F 55% 29.90 in 10.0 mi NNW 16.1 mph 19.6 mph N/A   Clear
1:35 PM 30.2 °F 18.1 °F 17.6 °F 60% 29.90 in 10.0 mi NNW 18.4 mph 25.3 mph N/A   Clear
1:55 PM 32.0 °F 20.5 °F 17.6 °F 55% 29.90 in 10.0 mi NNW 18.4 mph 24.2 mph N/A   Clear
2:15 PM 32.0 °F 21.2 °F 17.6 °F 55% 29.90 in 10.0 mi WNW 16.1 mph 23.0 mph N/A   Clear
2:35 PM 32.0 °F 20.8 °F 15.8 °F 51% 29.90 in 10.0 mi WNW 17.3 mph 24.2 mph N/A   Clear
2:55 PM 33.8 °F 24.3 °F 15.8 °F 48% 29.91 in 10.0 mi NW 13.8 mph - N/A   Clear
3:15 PM 33.8 °F 21.9 °F 15.8 °F 48% 29.91 in 10.0 mi NNW 21.9 mph 28.8 mph N/A   Clear
3:35 PM 33.8 °F 22.5 °F 15.8 °F 48% 29.91 in 10.0 mi NNW 19.6 mph - N/A   Clear
3:55 PM 33.8 °F 22.8 °F 15.8 °F 48% 29.91 in 10.0 mi NNW 18.4 mph 26.5 mph N/A   Clear
4:15 PM 33.8 °F 23.5 °F 14.0 °F 44% 29.92 in 10.0 mi NW 16.1 mph 27.6 mph N/A   Clear
4:35 PM 33.8 °F 21.6 °F 14.0 °F 44% 29.92 in 10.0 mi NNW 23.0 mph - N/A   Clear
4:55 PM 32.0 °F 20.8 °F 14.0 °F 48% 29.93 in 10.0 mi NNW 17.3 mph 24.2 mph N/A   Scattered Clouds
5:15 PM 32.0 °F 19.8 °F 14.0 °F 48% 29.93 in 10.0 mi NNW 20.7 mph 26.5 mph N/A   Mostly Cloudy
5:35 PM 32.0 °F 20.1 °F 12.2 °F 44% 29.93 in 10.0 mi NNW 19.6 mph - N/A   Partly Cloudy
5:55 PM 30.2 °F 17.8 °F 12.2 °F 47% 29.94 in 10.0 mi NW 19.6 mph 26.5 mph N/A   Partly Cloudy
6:15 PM 30.2 °F 17.8 °F 12.2 °F 47% 29.95 in 10.0 mi NNW 19.6 mph 27.6 mph N/A   Mostly Cloudy
6:35 PM 28.4 °F 15.1 °F 10.4 °F 47% 29.95 in 10.0 mi NW 20.7 mph 26.5 mph N/A   Overcast
6:55 PM 28.4 °F 16.6 °F 12.2 °F 51% 29.97 in 10.0 mi NNW 16.1 mph - N/A   Overcast
7:15 PM 28.4 °F 15.4 °F 12.2 °F 51% 29.98 in 10.0 mi NNW 19.6 mph 25.3 mph N/A   Overcast
7:35 PM 26.6 °F 12.7 °F 10.4 °F 51% 29.99 in 10.0 mi NNW 20.7 mph 28.8 mph N/A   Overcast
7:55 PM 26.6 °F 13.8 °F 12.2 °F 55% 30.00 in 10.0 mi NNW 17.3 mph 26.5 mph N/A   Overcast
8:15 PM 26.6 °F 12.4 °F 10.4 °F 51% 30.01 in 10.0 mi NNW 21.9 mph 27.6 mph N/A   Overcast
8:35 PM 26.6 °F 14.3 °F 12.2 °F 55% 30.01 in 10.0 mi NNW 16.1 mph - N/A   Overcast
8:55 PM 26.6 °F 14.7 °F 10.4 °F 51% 30.01 in 10.0 mi NW 15.0 mph - N/A   Overcast
9:15 PM 24.8 °F 11.9 °F 8.6 °F 50% 30.01 in 10.0 mi NW 16.1 mph 23.0 mph N/A   Overcast
9:35 PM 24.8 °F 9.6 °F 8.6 °F 50% 30.02 in 10.0 mi NW 23.0 mph 26.5 mph N/A   Overcast
9:55 PM 24.8 °F 10.3 °F 8.6 °F 50% 30.02 in 10.0 mi NNW 20.7 mph 29.9 mph N/A   Overcast
10:15 PM 23.0 °F 9.6 °F 8.6 °F 54% 30.03 in 10.0 mi NNW 16.1 mph - N/A   Mostly Cloudy
10:35 PM 21.2 °F 6.8 °F 8.6 °F 58% 30.03 in 10.0 mi North 17.3 mph 24.2 mph N/A   Partly Cloudy
10:55 PM 19.4 °F 3.2 °F 8.6 °F 63% 30.04 in 10.0 mi NNW 20.7 mph - N/A   Clear
11:15 PM 19.4 °F 5.5 °F 6.8 °F 58% 30.05 in 10.0 mi NNW 15.0 mph 25.3 mph N/A   Clear
11:35 PM 17.6 °F 3.7 °F 6.8 °F 63% 30.05 in 10.0 mi NNW 13.8 mph - N/A   Mostly Cloudy
11:55 PM 17.6 °F 3.7 °F 6.8 °F 63% 30.05 in 10.0 mi NNW 13.8 mph - N/A   Overcast